Location: Wien
(48.2082°N, 16.3738°E)
Time: 02:00:25
(UTC+02:00)

MOZHAYETS 4 - Pass Details

Date: 04 May 2024
Orbit: 652 x 670 km, 98.3° (Epoch: 23 May)

Event Time Altitude Azimuth Distance (km) Brightness Sun altitude
Rises 02:39:55 0° 118° (ESE) 3,012 11.1 -21.3°
Reaches altitude 10° 02:42:48 10° 99° (E) 2,101 10.5 -21.1°
Maximum altitude 02:45:45 17° 59° (ENE) 1,674 10.5 -20.9°
Drops below altitude 10° 02:48:42 10° 19° (NNE) 2,106 11.4 -20.6°
Sets 02:51:35 0° 360° (N) 3,021 12.1 -20.4°
